Year,Month,Day,Hour,Minute,Value (Times are PST for temperature in C)
2009,08,03,00,00,15.80
2009,08,03,00,01,15.80
2009,08,03,00,02,15.80
2009,08,03,00,03,15.80
2009,08,03,00,04,15.80
2009,08,03,00,05,15.80
2009,08,03,00,06,15.80
2009,08,03,00,07,15.80
2009,08,03,00,08,15.80
2009,08,03,00,09,15.80
2009,08,03,00,10,15.80
2009,08,03,00,11,15.80
2009,08,03,00,12,15.80
2009,08,03,00,13,15.80
2009,08,03,00,14,15.80
2009,08,03,00,15,15.80
2009,08,03,00,16,15.80
2009,08,03,00,17,15.80
2009,08,03,00,18,15.80
2009,08,03,00,19,15.80
2009,08,03,00,20,15.80
2009,08,03,00,21,15.80
2009,08,03,00,22,15.80
2009,08,03,00,23,15.70
2009,08,03,00,24,15.70
2009,08,03,00,25,15.70
2009,08,03,00,26,15.70
2009,08,03,00,27,15.70
2009,08,03,00,28,15.70
2009,08,03,00,29,15.70
2009,08,03,00,30,15.70
2009,08,03,00,31,15.70
2009,08,03,00,32,15.70
2009,08,03,00,33,15.70
2009,08,03,00,34,15.70
2009,08,03,00,35,15.60
2009,08,03,00,36,15.60
2009,08,03,00,37,15.60
2009,08,03,00,38,15.60
2009,08,03,00,39,15.60
2009,08,03,00,40,15.60
2009,08,03,00,41,15.50
2009,08,03,00,42,15.50
2009,08,03,00,43,15.50
2009,08,03,00,44,15.50
2009,08,03,00,45,15.50
2009,08,03,00,46,15.50
2009,08,03,00,47,15.50
2009,08,03,00,48,15.50
2009,08,03,00,49,15.50
2009,08,03,00,50,15.50
2009,08,03,00,51,15.50
2009,08,03,00,52,15.50
2009,08,03,00,53,15.40
2009,08,03,00,54,15.40
2009,08,03,00,55,15.40
2009,08,03,00,56,15.40
2009,08,03,00,57,15.40
2009,08,03,00,58,15.40
2009,08,03,00,59,15.40
2009,08,03,01,00,15.40
2009,08,03,01,01,15.40
2009,08,03,01,02,15.40
2009,08,03,01,03,15.30
2009,08,03,01,04,15.30
2009,08,03,01,05,15.30
2009,08,03,01,06,15.30
2009,08,03,01,07,15.30
2009,08,03,01,08,15.30
2009,08,03,01,09,15.30
2009,08,03,01,10,15.30
2009,08,03,01,11,15.30
2009,08,03,01,12,15.30
2009,08,03,01,13,15.20
2009,08,03,01,14,15.20
2009,08,03,01,15,15.20
2009,08,03,01,16,15.10
2009,08,03,01,17,15.10
2009,08,03,01,18,15.10
2009,08,03,01,19,15.10
2009,08,03,01,20,15.10
2009,08,03,01,21,15.10
2009,08,03,01,22,15.10
2009,08,03,01,23,15.10
2009,08,03,01,24,15.10
2009,08,03,01,25,15.10
2009,08,03,01,26,15.10
2009,08,03,01,27,15.10
2009,08,03,01,28,15.10
2009,08,03,01,29,15.10
2009,08,03,01,30,15.10
2009,08,03,01,31,15.10
2009,08,03,01,32,15.10
2009,08,03,01,33,15.10
2009,08,03,01,34,15.10
2009,08,03,01,35,15.00
2009,08,03,01,36,15.00
2009,08,03,01,37,15.00
2009,08,03,01,38,15.10
2009,08,03,01,39,15.10
2009,08,03,01,40,15.10
2009,08,03,01,41,15.10
2009,08,03,01,42,15.10
2009,08,03,01,43,15.10
2009,08,03,01,44,15.10
2009,08,03,01,45,15.10
2009,08,03,01,46,15.10
2009,08,03,01,47,15.10
2009,08,03,01,48,15.10
2009,08,03,01,49,15.10
2009,08,03,01,50,15.00
2009,08,03,01,51,15.00
2009,08,03,01,52,15.00
2009,08,03,01,53,15.00
2009,08,03,01,54,14.90
2009,08,03,01,55,14.90
2009,08,03,01,56,14.90
2009,08,03,01,57,14.90
2009,08,03,01,58,14.90
2009,08,03,01,59,14.80
2009,08,03,02,00,14.90
2009,08,03,02,01,14.80
2009,08,03,02,02,14.80
2009,08,03,02,03,14.80
2009,08,03,02,04,14.80
2009,08,03,02,05,14.80
2009,08,03,02,06,14.80
2009,08,03,02,07,14.70
2009,08,03,02,08,14.70
2009,08,03,02,09,14.60
2009,08,03,02,10,14.60
2009,08,03,02,11,14.50
2009,08,03,02,12,14.50
2009,08,03,02,13,14.40
2009,08,03,02,14,14.40
2009,08,03,02,15,14.40
2009,08,03,02,16,14.40
2009,08,03,02,17,14.30
2009,08,03,02,18,14.30
2009,08,03,02,19,14.30
2009,08,03,02,20,14.30
2009,08,03,02,21,14.20
2009,08,03,02,22,14.20
2009,08,03,02,23,14.20
2009,08,03,02,24,14.20
2009,08,03,02,25,14.20
2009,08,03,02,26,14.20
2009,08,03,02,27,14.20
2009,08,03,02,28,14.20
2009,08,03,02,29,14.10
2009,08,03,02,30,14.10
2009,08,03,02,31,14.10
2009,08,03,02,32,14.00
2009,08,03,02,33,14.00
2009,08,03,02,34,14.00
2009,08,03,02,35,14.00
2009,08,03,02,36,14.00
2009,08,03,02,37,14.00
2009,08,03,02,38,14.00
2009,08,03,02,39,14.00
2009,08,03,02,40,14.00
2009,08,03,02,41,14.00
2009,08,03,02,42,14.00
2009,08,03,02,43,14.00
2009,08,03,02,44,13.90
2009,08,03,02,45,13.90
2009,08,03,02,46,13.90
2009,08,03,02,47,13.90
2009,08,03,02,48,13.90
2009,08,03,02,49,13.90
2009,08,03,02,50,13.90
2009,08,03,02,51,13.80
2009,08,03,02,52,13.80
2009,08,03,02,53,13.80
2009,08,03,02,54,13.80
2009,08,03,02,55,13.80
2009,08,03,02,56,13.70
2009,08,03,02,57,13.70
2009,08,03,02,58,13.70
2009,08,03,02,59,13.70
2009,08,03,03,00,13.70
2009,08,03,03,01,13.70
2009,08,03,03,02,13.70
2009,08,03,03,03,13.70
2009,08,03,03,04,13.70
2009,08,03,03,05,13.70
2009,08,03,03,06,13.70
2009,08,03,03,07,13.70
2009,08,03,03,08,13.70
2009,08,03,03,09,13.70
2009,08,03,03,10,13.70
2009,08,03,03,11,13.70
2009,08,03,03,12,13.70
2009,08,03,03,13,13.70
2009,08,03,03,14,13.60
2009,08,03,03,15,13.60
2009,08,03,03,16,13.60
2009,08,03,03,17,13.60
2009,08,03,03,18,13.60
2009,08,03,03,19,13.60
2009,08,03,03,20,13.60
2009,08,03,03,21,13.60
2009,08,03,03,22,13.60
2009,08,03,03,23,13.50
2009,08,03,03,24,13.50
2009,08,03,03,25,13.50
2009,08,03,03,26,13.50
2009,08,03,03,27,13.50
2009,08,03,03,28,13.50
2009,08,03,03,29,13.50
2009,08,03,03,30,13.50
2009,08,03,03,31,13.50
2009,08,03,03,32,13.40
2009,08,03,03,33,13.40
2009,08,03,03,34,13.30
2009,08,03,03,35,13.30
2009,08,03,03,36,13.30
2009,08,03,03,37,13.30
2009,08,03,03,38,13.30
2009,08,03,03,39,13.30
2009,08,03,03,40,13.30
2009,08,03,03,41,13.30
2009,08,03,03,42,13.30
2009,08,03,03,43,13.30
2009,08,03,03,44,13.20
2009,08,03,03,45,13.20
2009,08,03,03,46,13.20
2009,08,03,03,47,13.20
2009,08,03,03,48,13.20
2009,08,03,03,49,13.20
2009,08,03,03,50,13.20
2009,08,03,03,51,13.20
2009,08,03,03,52,13.20
2009,08,03,03,53,13.20
2009,08,03,03,54,13.20
2009,08,03,03,55,13.20
2009,08,03,03,56,13.20
2009,08,03,03,57,13.20
2009,08,03,03,58,13.20
2009,08,03,03,59,13.20
2009,08,03,04,00,13.20
2009,08,03,04,01,13.20
2009,08,03,04,02,13.20
2009,08,03,04,03,13.20
2009,08,03,04,04,13.10
2009,08,03,04,05,13.10
2009,08,03,04,06,13.10
2009,08,03,04,07,13.00
2009,08,03,04,08,13.00
2009,08,03,04,09,13.00
2009,08,03,04,10,13.00
2009,08,03,04,11,12.90
2009,08,03,04,12,12.90
2009,08,03,04,13,12.90
2009,08,03,04,14,12.90
2009,08,03,04,15,12.90
2009,08,03,04,16,12.90
2009,08,03,04,17,12.90
2009,08,03,04,18,12.90
2009,08,03,04,19,12.90
2009,08,03,04,20,12.90
2009,08,03,04,21,12.90
2009,08,03,04,22,12.90
2009,08,03,04,23,12.90
2009,08,03,04,24,12.90
2009,08,03,04,25,12.90
2009,08,03,04,26,12.90
2009,08,03,04,27,12.90
2009,08,03,04,28,12.90
2009,08,03,04,29,12.90
2009,08,03,04,30,12.90
2009,08,03,04,31,12.90
2009,08,03,04,32,12.90
2009,08,03,04,33,12.90
2009,08,03,04,34,12.90
2009,08,03,04,35,12.90
2009,08,03,04,36,12.90
2009,08,03,04,37,12.80
2009,08,03,04,38,12.80
2009,08,03,04,39,12.80
2009,08,03,04,40,12.80
2009,08,03,04,41,12.80
2009,08,03,04,42,12.80
2009,08,03,04,43,12.80
2009,08,03,04,44,12.80
2009,08,03,04,45,12.80
2009,08,03,04,46,12.80
2009,08,03,04,47,12.80
2009,08,03,04,48,12.70
2009,08,03,04,49,12.70
2009,08,03,04,50,12.70
2009,08,03,04,51,12.60
2009,08,03,04,52,12.60
2009,08,03,04,53,12.60
2009,08,03,04,54,12.50
2009,08,03,04,55,12.50
2009,08,03,04,56,12.50
2009,08,03,04,57,12.40
2009,08,03,04,58,12.40
2009,08,03,04,59,12.30
2009,08,03,05,00,12.30
2009,08,03,05,01,12.30
2009,08,03,05,02,12.20
2009,08,03,05,03,12.20
2009,08,03,05,04,12.20
2009,08,03,05,05,12.10
2009,08,03,05,06,12.10
2009,08,03,05,07,12.00
2009,08,03,05,08,12.00
2009,08,03,05,09,11.90
2009,08,03,05,10,11.90
2009,08,03,05,11,11.90
2009,08,03,05,12,11.80
2009,08,03,05,13,11.80
2009,08,03,05,14,11.80
2009,08,03,05,15,11.80
2009,08,03,05,16,11.80
2009,08,03,05,17,11.70
2009,08,03,05,18,11.70
2009,08,03,05,19,11.60
2009,08,03,05,20,11.60
2009,08,03,05,21,11.60
2009,08,03,05,22,11.60
2009,08,03,05,23,11.60
2009,08,03,05,24,11.60
2009,08,03,05,25,11.60
2009,08,03,05,26,11.40
2009,08,03,05,27,11.40
2009,08,03,05,28,11.40
2009,08,03,05,29,11.40
2009,08,03,05,30,11.30
2009,08,03,05,31,11.30
2009,08,03,05,32,11.30
2009,08,03,05,33,11.20
2009,08,03,05,34,11.20
2009,08,03,05,35,11.20
2009,08,03,05,36,11.20
2009,08,03,05,37,11.20
2009,08,03,05,38,11.10
2009,08,03,05,39,11.10
2009,08,03,05,40,11.10
2009,08,03,05,41,11.10
2009,08,03,05,42,11.10
2009,08,03,05,43,11.00
2009,08,03,05,44,10.90
2009,08,03,05,45,10.90
2009,08,03,05,46,10.90
2009,08,03,05,47,10.90
2009,08,03,05,48,10.90
2009,08,03,05,49,10.90
2009,08,03,05,50,10.90
2009,08,03,05,51,10.90
2009,08,03,05,52,10.90
2009,08,03,05,53,10.90
2009,08,03,05,54,10.90
2009,08,03,05,55,10.80
2009,08,03,05,56,10.80
2009,08,03,05,57,10.80
2009,08,03,05,58,10.80
2009,08,03,05,59,10.80
2009,08,03,06,00,10.80
2009,08,03,06,01,10.70
2009,08,03,06,02,10.70
2009,08,03,06,03,10.70
2009,08,03,06,04,10.70
2009,08,03,06,05,10.70
2009,08,03,06,06,10.70
2009,08,03,06,07,10.70
2009,08,03,06,08,10.70
2009,08,03,06,09,10.70
2009,08,03,06,10,10.70
2009,08,03,06,11,10.70
2009,08,03,06,12,10.70
2009,08,03,06,13,10.70
2009,08,03,06,14,10.70
2009,08,03,06,15,10.70
2009,08,03,06,16,10.70
2009,08,03,06,17,10.70
2009,08,03,06,18,10.70
2009,08,03,06,19,10.70
2009,08,03,06,20,10.70
2009,08,03,06,21,10.70
2009,08,03,06,22,10.70
2009,08,03,06,23,10.70
2009,08,03,06,24,10.80
2009,08,03,06,25,10.80
2009,08,03,06,26,10.80
2009,08,03,06,27,10.80
2009,08,03,06,28,10.90
2009,08,03,06,29,10.90
2009,08,03,06,30,10.90
2009,08,03,06,31,10.90
2009,08,03,06,32,10.90
2009,08,03,06,33,10.90
2009,08,03,06,34,10.90
2009,08,03,06,35,10.90
2009,08,03,06,36,10.90
2009,08,03,06,37,10.90
2009,08,03,06,38,10.90
2009,08,03,06,39,10.90
2009,08,03,06,40,10.90
2009,08,03,06,41,11.00
2009,08,03,06,42,11.10
2009,08,03,06,43,11.10
2009,08,03,06,44,11.10
2009,08,03,06,45,11.10
2009,08,03,06,46,11.20
2009,08,03,06,47,11.20
2009,08,03,06,48,11.20
2009,08,03,06,49,11.20
2009,08,03,06,50,11.20
2009,08,03,06,51,11.20
2009,08,03,06,52,11.20
2009,08,03,06,53,11.20
2009,08,03,06,54,11.20
2009,08,03,06,55,11.20
2009,08,03,06,56,11.30
2009,08,03,06,57,11.30
2009,08,03,06,58,11.30
2009,08,03,06,59,11.40
2009,08,03,07,00,11.40
2009,08,03,07,01,11.40
2009,08,03,07,02,11.40
2009,08,03,07,03,11.40
2009,08,03,07,04,11.40
2009,08,03,07,05,11.40
2009,08,03,07,06,11.40
2009,08,03,07,07,11.40
2009,08,03,07,08,11.40
2009,08,03,07,09,11.40
2009,08,03,07,10,11.50
2009,08,03,07,11,11.60
2009,08,03,07,12,11.60
2009,08,03,07,13,11.60
2009,08,03,07,14,11.60
2009,08,03,07,15,11.60
2009,08,03,07,16,11.60
2009,08,03,07,17,11.60
2009,08,03,07,18,11.60
2009,08,03,07,19,11.60
2009,08,03,07,20,11.60
2009,08,03,07,21,11.60
2009,08,03,07,22,11.60
2009,08,03,07,23,11.60
2009,08,03,07,24,11.60
2009,08,03,07,25,11.60
2009,08,03,07,26,11.60
2009,08,03,07,27,11.60
2009,08,03,07,28,11.60
2009,08,03,07,29,11.60
2009,08,03,07,30,11.60
2009,08,03,07,31,11.60
2009,08,03,07,32,11.60
2009,08,03,07,33,11.60
2009,08,03,07,34,11.60
2009,08,03,07,35,11.60
2009,08,03,07,36,11.60
2009,08,03,07,37,11.60
2009,08,03,07,38,11.60
2009,08,03,07,39,11.60
2009,08,03,07,40,11.50
2009,08,03,07,41,11.50
2009,08,03,07,42,11.60
2009,08,03,07,43,11.60
2009,08,03,07,44,11.60
2009,08,03,07,45,11.60
2009,08,03,07,46,11.60
2009,08,03,07,47,11.60
2009,08,03,07,48,11.60
2009,08,03,07,49,11.70
2009,08,03,07,50,11.70
2009,08,03,07,51,11.70
2009,08,03,07,52,11.70
2009,08,03,07,53,11.70
2009,08,03,07,54,11.70
2009,08,03,07,55,11.70
2009,08,03,07,56,11.70
2009,08,03,07,57,11.70
2009,08,03,07,58,11.70
2009,08,03,07,59,11.70
2009,08,03,08,00,11.70
2009,08,03,08,01,11.70
2009,08,03,08,02,11.80
2009,08,03,08,03,11.80
2009,08,03,08,04,11.80
2009,08,03,08,05,11.80
2009,08,03,08,06,11.80
2009,08,03,08,07,11.80
2009,08,03,08,08,11.80
2009,08,03,08,09,11.80
2009,08,03,08,10,11.80
2009,08,03,08,11,11.80
2009,08,03,08,12,11.80
2009,08,03,08,13,11.80
2009,08,03,08,14,11.90
2009,08,03,08,15,11.90
2009,08,03,08,16,12.00
2009,08,03,08,17,12.00
2009,08,03,08,18,12.10
2009,08,03,08,19,12.20
2009,08,03,08,20,12.20
2009,08,03,08,21,12.30
2009,08,03,08,22,12.30
2009,08,03,08,23,12.20
2009,08,03,08,24,12.20
2009,08,03,08,25,12.20
2009,08,03,08,26,12.30
2009,08,03,08,27,12.30
2009,08,03,08,28,12.30
2009,08,03,08,29,12.30
2009,08,03,08,30,12.30
2009,08,03,08,31,12.30
2009,08,03,08,32,12.40
2009,08,03,08,33,12.50
2009,08,03,08,34,12.60
2009,08,03,08,35,12.70
2009,08,03,08,36,12.80
2009,08,03,08,37,12.80
2009,08,03,08,38,12.90
2009,08,03,08,39,12.90
2009,08,03,08,40,12.90
2009,08,03,08,41,13.00
2009,08,03,08,42,13.00
2009,08,03,08,43,13.00
2009,08,03,08,44,13.10
2009,08,03,08,45,13.10
2009,08,03,08,46,13.20
2009,08,03,08,47,13.20
2009,08,03,08,48,13.20
2009,08,03,08,49,13.30
2009,08,03,08,50,13.30
2009,08,03,08,51,13.40
2009,08,03,08,52,13.60
2009,08,03,08,53,13.70
2009,08,03,08,54,13.70
2009,08,03,08,55,13.90
2009,08,03,08,56,14.00
2009,08,03,08,57,14.10
2009,08,03,08,58,14.20
2009,08,03,08,59,14.30
2009,08,03,09,00,14.30
2009,08,03,09,01,14.40
2009,08,03,09,02,14.50
2009,08,03,09,03,14.50
2009,08,03,09,04,14.60
2009,08,03,09,05,14.60
2009,08,03,09,06,14.60
2009,08,03,09,07,14.60
2009,08,03,09,08,14.60
2009,08,03,09,09,14.60
2009,08,03,09,10,14.60
2009,08,03,09,11,14.50
2009,08,03,09,12,14.40
2009,08,03,09,13,14.30
2009,08,03,09,14,14.30
2009,08,03,09,15,14.30
2009,08,03,09,16,14.30
2009,08,03,09,17,14.30
2009,08,03,09,18,14.30
2009,08,03,09,19,14.40
2009,08,03,09,20,14.40
2009,08,03,09,21,14.50
2009,08,03,09,22,14.50
2009,08,03,09,23,14.50
2009,08,03,09,24,14.50
2009,08,03,09,25,14.40
2009,08,03,09,26,14.40
2009,08,03,09,27,14.40
2009,08,03,09,28,14.40
2009,08,03,09,29,14.40
2009,08,03,09,30,14.40
2009,08,03,09,31,14.40
2009,08,03,09,32,14.50
2009,08,03,09,33,14.50
2009,08,03,09,34,14.60
2009,08,03,09,35,14.70
2009,08,03,09,36,14.70
2009,08,03,09,37,14.70
2009,08,03,09,38,14.70
2009,08,03,09,39,14.70
2009,08,03,09,40,14.80
2009,08,03,09,41,14.80
2009,08,03,09,42,14.80
2009,08,03,09,43,14.80
2009,08,03,09,44,14.80
2009,08,03,09,45,14.90
2009,08,03,09,46,15.00
2009,08,03,09,47,15.00
2009,08,03,09,48,15.10
2009,08,03,09,49,15.20
2009,08,03,09,50,15.20
2009,08,03,09,51,15.30
2009,08,03,09,52,15.30
2009,08,03,09,53,15.40
2009,08,03,09,54,15.50
2009,08,03,09,55,15.70
2009,08,03,09,56,15.90
2009,08,03,09,57,16.10
2009,08,03,09,58,16.20
2009,08,03,09,59,16.40
2009,08,03,10,00,16.60
2009,08,03,10,01,16.90
2009,08,03,10,02,17.10
2009,08,03,10,03,17.30
2009,08,03,10,04,17.40
2009,08,03,10,05,17.50
2009,08,03,10,06,17.50
2009,08,03,10,07,17.50
2009,08,03,10,08,17.50
2009,08,03,10,09,17.50
2009,08,03,10,10,17.50
2009,08,03,10,11,17.60
2009,08,03,10,12,17.80
2009,08,03,10,13,18.00
2009,08,03,10,14,18.20
2009,08,03,10,15,18.30
2009,08,03,10,16,18.40
2009,08,03,10,17,18.60
2009,08,03,10,18,18.60
2009,08,03,10,19,18.60
2009,08,03,10,20,18.70
2009,08,03,10,21,18.60
2009,08,03,10,22,18.60
2009,08,03,10,23,18.60
2009,08,03,10,24,18.70
2009,08,03,10,25,18.80
2009,08,03,10,26,18.80
2009,08,03,10,27,18.80
2009,08,03,10,28,18.80
2009,08,03,10,29,18.60
2009,08,03,10,30,18.50
2009,08,03,10,31,18.50
2009,08,03,10,32,18.50
2009,08,03,10,33,18.40
2009,08,03,10,34,18.40
2009,08,03,10,35,18.40
2009,08,03,10,36,18.40
2009,08,03,10,37,18.40
2009,08,03,10,38,18.40
2009,08,03,10,39,18.40
2009,08,03,10,40,18.50
2009,08,03,10,41,18.50
2009,08,03,10,42,18.40
2009,08,03,10,43,18.30
2009,08,03,10,44,18.10
2009,08,03,10,45,18.00
2009,08,03,10,46,17.80
2009,08,03,10,47,17.50
2009,08,03,10,48,17.30
2009,08,03,10,49,17.00
2009,08,03,10,50,16.90
2009,08,03,10,51,16.90
2009,08,03,10,52,16.80
2009,08,03,10,53,16.70
2009,08,03,10,54,16.70
2009,08,03,10,55,16.70
2009,08,03,10,56,16.80
2009,08,03,10,57,16.90
2009,08,03,10,58,17.00
2009,08,03,10,59,17.00
2009,08,03,11,00,17.10
2009,08,03,11,01,17.10
2009,08,03,11,02,17.20
2009,08,03,11,03,17.40
2009,08,03,11,04,17.50
2009,08,03,11,05,17.60
2009,08,03,11,06,17.80
2009,08,03,11,07,17.80
2009,08,03,11,08,17.80
2009,08,03,11,09,17.80
2009,08,03,11,10,17.90
2009,08,03,11,11,18.00
2009,08,03,11,12,18.20
2009,08,03,11,13,18.30
2009,08,03,11,14,18.40
2009,08,03,11,15,18.60
2009,08,03,11,16,18.60
2009,08,03,11,17,18.70
2009,08,03,11,18,18.60
2009,08,03,11,19,18.40
2009,08,03,11,20,18.20
2009,08,03,11,21,18.10
2009,08,03,11,22,17.90
2009,08,03,11,23,17.90
2009,08,03,11,24,17.70
2009,08,03,11,25,17.70
2009,08,03,11,26,17.80
2009,08,03,11,27,17.90
2009,08,03,11,28,18.00
2009,08,03,11,29,18.20
2009,08,03,11,30,18.30
2009,08,03,11,31,18.50
2009,08,03,11,32,18.60
2009,08,03,11,33,18.80
2009,08,03,11,34,18.90
2009,08,03,11,35,18.90
2009,08,03,11,36,19.10
2009,08,03,11,37,19.10
2009,08,03,11,38,19.10
2009,08,03,11,39,19.20
2009,08,03,11,40,19.20
2009,08,03,11,41,19.10
2009,08,03,11,42,19.20
2009,08,03,11,43,19.30
2009,08,03,11,44,19.20
2009,08,03,11,45,19.10
2009,08,03,11,46,19.00
2009,08,03,11,47,18.60
2009,08,03,11,48,18.40
2009,08,03,11,49,18.30
2009,08,03,11,50,18.20
2009,08,03,11,51,18.10
2009,08,03,11,52,18.10
2009,08,03,11,53,18.20
2009,08,03,11,54,18.30
2009,08,03,11,55,18.40
2009,08,03,11,56,18.40
2009,08,03,11,57,18.50
2009,08,03,11,58,18.70
2009,08,03,11,59,18.70
2009,08,03,12,00,18.90
2009,08,03,12,01,18.90
2009,08,03,12,02,18.90
2009,08,03,12,03,18.90
2009,08,03,12,04,18.60
2009,08,03,12,05,18.50
2009,08,03,12,06,18.40
2009,08,03,12,07,18.50
2009,08,03,12,08,18.60
2009,08,03,12,09,18.60
2009,08,03,12,10,18.60
2009,08,03,12,11,18.50
2009,08,03,12,12,18.30
2009,08,03,12,13,18.20
2009,08,03,12,14,18.10
2009,08,03,12,15,18.10
2009,08,03,12,16,18.20
2009,08,03,12,17,18.00
2009,08,03,12,18,17.90
2009,08,03,12,19,17.90
2009,08,03,12,20,17.90
2009,08,03,12,21,17.90
2009,08,03,12,22,17.90
2009,08,03,12,23,17.90
2009,08,03,12,24,18.00
2009,08,03,12,25,18.10
2009,08,03,12,26,18.20
2009,08,03,12,27,18.10
2009,08,03,12,28,18.10
2009,08,03,12,29,18.10
2009,08,03,12,30,18.10
2009,08,03,12,31,18.00
2009,08,03,12,32,17.90
2009,08,03,12,33,17.90
2009,08,03,12,34,17.90
2009,08,03,12,35,17.90
2009,08,03,12,36,17.90
2009,08,03,12,37,17.90
2009,08,03,12,38,17.90
2009,08,03,12,39,17.90
2009,08,03,12,40,17.80
2009,08,03,12,41,17.70
2009,08,03,12,42,17.80
2009,08,03,12,43,17.70
2009,08,03,12,44,17.70
2009,08,03,12,45,17.80
2009,08,03,12,46,18.00
2009,08,03,12,47,18.20
2009,08,03,12,48,18.30
2009,08,03,12,49,18.30
2009,08,03,12,50,18.10
2009,08,03,12,51,18.10
2009,08,03,12,52,18.20
2009,08,03,12,53,18.20
2009,08,03,12,54,18.30
2009,08,03,12,55,18.40
2009,08,03,12,56,18.50
2009,08,03,12,57,18.60
2009,08,03,12,58,18.70
2009,08,03,12,59,18.80
2009,08,03,13,00,18.90
2009,08,03,13,01,19.10
2009,08,03,13,02,19.00
2009,08,03,13,03,18.90
2009,08,03,13,04,18.70
2009,08,03,13,05,18.70
2009,08,03,13,06,18.80
2009,08,03,13,07,18.90
2009,08,03,13,08,19.00
2009,08,03,13,09,19.10
2009,08,03,13,10,19.10
2009,08,03,13,11,19.10
2009,08,03,13,12,19.30
2009,08,03,13,13,19.30
2009,08,03,13,14,19.40
2009,08,03,13,15,19.60
2009,08,03,13,16,19.70
2009,08,03,13,17,19.80
2009,08,03,13,18,19.80
2009,08,03,13,19,19.60
2009,08,03,13,20,19.60
2009,08,03,13,21,19.70
2009,08,03,13,22,19.50
2009,08,03,13,23,19.20
2009,08,03,13,24,19.20
2009,08,03,13,25,19.30
2009,08,03,13,26,19.30
2009,08,03,13,27,19.40
2009,08,03,13,28,19.40
2009,08,03,13,29,19.40
2009,08,03,13,30,19.50
2009,08,03,13,31,19.60
2009,08,03,13,32,19.60
2009,08,03,13,33,19.50
2009,08,03,13,34,19.50
2009,08,03,13,35,19.60
2009,08,03,13,36,19.60
2009,08,03,13,37,19.80
2009,08,03,13,38,20.00
2009,08,03,13,39,20.10
2009,08,03,13,40,20.20
2009,08,03,13,41,20.30
2009,08,03,13,42,20.50
2009,08,03,13,43,20.60
2009,08,03,13,44,20.70
2009,08,03,13,45,20.80
2009,08,03,13,46,20.70
2009,08,03,13,47,20.80
2009,08,03,13,48,20.80
2009,08,03,13,49,20.80
2009,08,03,13,50,20.70
2009,08,03,13,51,20.70
2009,08,03,13,52,20.70
2009,08,03,13,53,20.80
2009,08,03,13,54,20.80
2009,08,03,13,55,20.80
2009,08,03,13,56,20.80
2009,08,03,13,57,20.90
2009,08,03,13,58,21.00
2009,08,03,13,59,21.00
2009,08,03,14,00,21.00
2009,08,03,14,01,20.90
2009,08,03,14,02,20.80
2009,08,03,14,03,20.70
2009,08,03,14,04,20.60
2009,08,03,14,05,20.50
2009,08,03,14,06,20.40
2009,08,03,14,07,20.40
2009,08,03,14,08,20.50
2009,08,03,14,09,20.40
2009,08,03,14,10,20.50
2009,08,03,14,11,20.70
2009,08,03,14,12,21.00
2009,08,03,14,13,21.00
2009,08,03,14,14,20.90
2009,08,03,14,15,20.90
2009,08,03,14,16,21.00
2009,08,03,14,17,21.00
2009,08,03,14,18,20.90
2009,08,03,14,19,20.90
2009,08,03,14,20,20.70
2009,08,03,14,21,20.50
2009,08,03,14,22,20.30
2009,08,03,14,23,20.00
2009,08,03,14,24,19.90
2009,08,03,14,25,19.80
2009,08,03,14,26,19.90
2009,08,03,14,27,19.90
2009,08,03,14,28,20.00
2009,08,03,14,29,20.10
2009,08,03,14,30,19.90
2009,08,03,14,31,19.70
2009,08,03,14,32,19.50
2009,08,03,14,33,19.50
2009,08,03,14,34,19.40
2009,08,03,14,35,19.40
2009,08,03,14,36,19.30
2009,08,03,14,37,19.30
2009,08,03,14,38,19.40
2009,08,03,14,39,19.30
2009,08,03,14,40,19.20
2009,08,03,14,41,19.10
2009,08,03,14,42,19.10
2009,08,03,14,43,19.20
2009,08,03,14,44,19.30
2009,08,03,14,45,19.30
2009,08,03,14,46,19.30
2009,08,03,14,47,19.30
2009,08,03,14,48,19.40
2009,08,03,14,49,19.40
2009,08,03,14,50,19.50
2009,08,03,14,51,19.50
2009,08,03,14,52,19.60
2009,08,03,14,53,19.60
2009,08,03,14,54,19.60
2009,08,03,14,55,19.60
2009,08,03,14,56,19.80
2009,08,03,14,57,20.00
2009,08,03,14,58,20.20
2009,08,03,14,59,20.20
2009,08,03,15,00,20.30
2009,08,03,15,01,20.40
2009,08,03,15,02,20.30
2009,08,03,15,03,20.40
2009,08,03,15,04,20.40
2009,08,03,15,05,20.50
2009,08,03,15,06,20.70
2009,08,03,15,07,20.70
2009,08,03,15,08,20.80
2009,08,03,15,09,20.90
2009,08,03,15,10,21.00
2009,08,03,15,11,20.90
2009,08,03,15,12,20.80
2009,08,03,15,13,20.80
2009,08,03,15,14,20.70
2009,08,03,15,15,20.80
2009,08,03,15,16,20.80
2009,08,03,15,17,20.80
2009,08,03,15,18,20.80
2009,08,03,15,19,20.90
2009,08,03,15,20,21.00
2009,08,03,15,21,21.20
2009,08,03,15,22,21.20
2009,08,03,15,23,21.30
2009,08,03,15,24,21.30
2009,08,03,15,25,21.30
2009,08,03,15,26,21.30
2009,08,03,15,27,21.30
2009,08,03,15,28,21.40
2009,08,03,15,29,21.50
2009,08,03,15,30,21.60
2009,08,03,15,31,21.50
2009,08,03,15,32,21.40
2009,08,03,15,33,21.30
2009,08,03,15,34,21.30
2009,08,03,15,35,21.10
2009,08,03,15,36,21.00
2009,08,03,15,37,21.00
2009,08,03,15,38,21.00
2009,08,03,15,39,21.10
2009,08,03,15,40,21.10
2009,08,03,15,41,21.30
2009,08,03,15,42,21.40
2009,08,03,15,43,21.60
2009,08,03,15,44,21.70
2009,08,03,15,45,21.90
2009,08,03,15,46,21.90
2009,08,03,15,47,21.70
2009,08,03,15,48,21.60
2009,08,03,15,49,21.60
2009,08,03,15,50,21.60
2009,08,03,15,51,21.60
2009,08,03,15,52,21.60
2009,08,03,15,53,21.60
2009,08,03,15,54,21.60
2009,08,03,15,55,21.60
2009,08,03,15,56,21.60
2009,08,03,15,57,21.80
2009,08,03,15,58,22.10
2009,08,03,15,59,22.10
2009,08,03,16,00,22.30
2009,08,03,16,01,22.30
2009,08,03,16,02,22.40
2009,08,03,16,03,22.30
2009,08,03,16,04,22.30
2009,08,03,16,05,22.30
2009,08,03,16,06,22.30
2009,08,03,16,07,22.20
2009,08,03,16,08,22.20
2009,08,03,16,09,22.30
2009,08,03,16,10,22.30
2009,08,03,16,11,22.40
2009,08,03,16,12,22.40
2009,08,03,16,13,22.50
2009,08,03,16,14,22.50
2009,08,03,16,15,22.60
2009,08,03,16,16,22.80
2009,08,03,16,17,22.90
2009,08,03,16,18,22.90
2009,08,03,16,19,23.00
2009,08,03,16,20,23.10
2009,08,03,16,21,23.20
2009,08,03,16,22,23.20
2009,08,03,16,23,23.30
2009,08,03,16,24,23.30
2009,08,03,16,25,23.30
2009,08,03,16,26,23.40
2009,08,03,16,27,23.50
2009,08,03,16,28,23.60
2009,08,03,16,29,23.60
2009,08,03,16,30,23.60
2009,08,03,16,31,23.70
2009,08,03,16,32,23.70
2009,08,03,16,33,23.80
2009,08,03,16,34,23.90
2009,08,03,16,35,24.00
2009,08,03,16,36,24.20
2009,08,03,16,37,24.30
2009,08,03,16,38,24.30
2009,08,03,16,39,24.40
2009,08,03,16,40,24.50
2009,08,03,16,41,24.60
2009,08,03,16,42,24.70
2009,08,03,16,43,24.80
2009,08,03,16,44,24.80
2009,08,03,16,45,24.90
2009,08,03,16,46,24.90
2009,08,03,16,47,25.00
2009,08,03,16,48,25.00
2009,08,03,16,49,25.10
2009,08,03,16,50,25.10
2009,08,03,16,51,25.20
2009,08,03,16,52,25.30
2009,08,03,16,53,25.40
2009,08,03,16,54,25.50
2009,08,03,16,55,25.60
2009,08,03,16,56,25.70
2009,08,03,16,57,25.70
2009,08,03,16,58,25.60
2009,08,03,16,59,25.60
2009,08,03,17,00,25.50
2009,08,03,17,01,25.50
2009,08,03,17,02,25.40
2009,08,03,17,03,25.40
2009,08,03,17,04,25.30
2009,08,03,17,05,25.40
2009,08,03,17,06,25.40
2009,08,03,17,07,25.50
2009,08,03,17,08,25.60
2009,08,03,17,09,25.70
2009,08,03,17,10,25.80
2009,08,03,17,11,25.80
2009,08,03,17,12,25.90
2009,08,03,17,13,25.90
2009,08,03,17,14,26.00
2009,08,03,17,15,26.00
2009,08,03,17,16,26.10
2009,08,03,17,17,26.10
2009,08,03,17,18,26.10
2009,08,03,17,19,25.90